Location: B�rgermoos
(47.6500°N, 9.0667°E)
Time: 17:24:57
(UTC+00:00)

Vanguard 1 - Pass Details

Date: 02 August 2021
Orbit: 652 x 3831 km, 34.3° (Epoch: 17 September)

Event Time Altitude Azimuth Distance (km) Brightness Sun altitude
Rises 15:50:40 0° 258° (WSW) 4,489 14.7 29.5°
Reaches altitude 10° 15:55:07 10° 236° (WSW) 4,043 14.3 28.8°
Maximum altitude 16:00:40 15° 206° (SSW) 4,266 13.9 27.9°
Drops below altitude 10° 16:07:48 10° 177° (S) 5,423 13.9 26.7°
Sets 16:15:58 0° 160° (SSE) 7,129 14.3 25.3°
